Temp
72 76 75 77 78 78 77 77 76 77 77 77 77 76 76 76 76 76 76 76 77 76 77 77 77 78 77 76 75 75 74 74 74 74 76 76 76 76 75 74 74 77 76
75 77 74 77 77 77 76 76 76 77 77 77 77 76 76 76 75 75 75 76 76 77 76 76 76 76 75 75 74 73 73 73 72 72 73 75 75 75 75 74 74 76 75
75 77 77 75 76 76 76 76 76 76 77 77 76 76 76 75 75 75 75 75 75 76 76 76 75 75 74 74 73 73 73 72 71 71 72 77 76 75 75 74 73 74 74
75 76 76 73 75 76 75 75 76 76 77 77 76 76 75 75 75 75 75 75 75 75 76 76 75 74 73 73 72 72 71 71 70 70 74 75 77 75 74 74 73 73 73
74 75 75 73 75 75 75 75 76 76 76 76 76 75 75 75 74 74 74 74 74 75 75 75 74 73 72 72 72 71 70 69 68 71 73 74 75 75 74 73 73 72 72
73 75 73 74 75 75 75 75 75 75 76 75 75 75 74 74 74 74 74 74 74 74 74 74 73 72 72 71 71 70 69 68 68 71 72 73 75 75 74 73 73 72 72
73 74 75 73 74 74 75 75 75 75 75 75 75 74 74 74 73 73 73 73 73 73 73 73 72 71 70 70 69 68 67 66 69 71 72 74 74 74 74 74 73 73 72
73 73 74 70 71 72 74 74 74 74 74 74 74 74 74 73 73 73 73 73 73 73 72 72 71 70 69 68 67 67 65 64 68 70 71 73 72 74 74 73 73 73 72
72 72 73 74 72 68 70 71 72 73 73 73 73 73 72 72 72 72 72 72 72 72 71 70 69 69 68 67 66 64 63 62 69 69 71 73 71 74 73 72 72 72 71
69 71 71 72 73 73 73 67 68 70 70 71 70 69 68 68 68 68 67 70 71 70 70 69 68 68 67 66 64 62 61 62 67 68 71 72 71 73 72 71 71 71 71
64 66 69 71 71 72 72 70 66 67 67 67 67 65 64 71 70 70 65 68 69 68 68 67 66 65 64 63 62 60 61 64 66 68 67 68 70 71 71 70 70 70 70
62 64 66 68 69 70 70 69 72 71 71 70 70 70 70 69 69 68 64 64 65 65 66 65 63 61 60 61 61 60 61 62 64 64 65 67 69 70 70 69 69 69 69
62 62 63 64 64 67 68 69 68 68 70 71 70 70 68 66 66 67 64 62 63 60 63 62 62 61 59 60 59 59 59 60 62 63 63 66 67 69 69 69 69 68 68
60 61 61 62 62 63 64 66 69 69 69 68 69 69 66 65 64 63 62 61 60 62 61 60 60 59 58 57 57 56 56 57 59 60 61 61 65 67 68 68 69 68 68
59 59 60 59 61 61 62 64 66 69 69 69 68 68 69 66 65 63 63 62 59 59 61 60 59 58 57 56 55 53 54 54 54 54 58 57 61 64 65 66 67 67 67
56 57 58 58 59 60 61 64 66 67 66 67 67 67 67 66 63 62 62 59 58 59 59 57 56 55 54 53 53 53 52 52 52 51 52 54 57 59 62 64 65 65 64
55 55 55 56 58 58 59 63 63 64 64 64 63 65 65 64 63 61 60 57 57 57 55 56 54 53 51 51 51 51 51 50 50 50 50 50 50 55 58 60 60 61 61
54 53 54 56 57 57 59 61 61 60 61 62 60 62 62 62 63 60 59 56 57 55 54 53 52 50 48 50 49 49 49 49 48 48 48 48 48 48 52 54 56 58 59
53 53 52 54 56 57 58 58 59 57 58 58 58 58 59 60 60 59 57 54 54 53 52 51 49 48 47 47 47 46 46 46 47 48 46 45 45 46 46 48 50 52 55
52 52 52 53 55 55 56 54 55 52 52 54 55 55 56 56 56 57 55 52 52 50 49 49 47 48 49 47 47 44 44 44 45 44 45 45 44 44 44 43 43 46 49
49 49 50 51 52 54 53 52 52 50 50 50 50 52 53 54 54 54 53 50 52 50 49 48 48 46 45 46 45 43 43 44 43 43 44 44 43 43 43 42 42 42 42
51 49 49 51 51 53 56 54 53 50 48 48 48 47 49 50 51 51 49 48 48 47 47 49 48 46 46 45 47 45 40 42 43 42 43 42 41 42 41 41 40 40 40
48 48 50 51 51 53 54 50 47 48 48 45 46 45 46 47 47 48 47 47 47 50 48 49 47 46 43 41 43 47 40 42 41 42 40 40 40 40 40 39 39 39 39
49 50 50 50 51 52 50 51 49 50 47 46 47 45 44 44 45 46 45 47 47 49 47 47 47 46 45 42 41 41 41 45 43 37 40 40 40 39 39 39 38 38 38
50 48 49 50 51 51 50 52 50 48 48 46 45 43 41 41 42 43 44 44 44 45 46 45 43 42 45 43 42 40 40 40 40 42 38 38 39 39 39 39 38 38 37
46 47 48 48 50 48 49 50 51 48 43 43 42 41 40 40 39 40 40 43 43 42 43 43 42 42 42 41 42 41 42 43 41 41 38 37 39 38 39 38 37 37 37
MSLP
1021.48 1021.36 1021.38 1021.55 1021.69 1021.79 1022.02 1022.02 1022.30 1022.51 1022.37 1022.61 1022.78 1022.77 1022.79 1022.81 1022.85 1022.78 1022.80 1022.80 1022.53 1022.69 1022.50 1022.71 1022.63 1022.37 1022.55 1022.72 1022.89 1022.99 1023.02 1022.99 1022.98 1022.94 1022.81 1022.74 1022.63 1022.78 1022.64 1022.47 1022.33 1022.09 1022.02
1020.87 1021.17 1021.35 1021.50 1021.73 1021.89 1022.18 1022.33 1022.45 1022.62 1022.60 1022.78 1022.92 1023.09 1023.12 1023.00 1023.13 1023.10 1023.17 1023.07 1023.03 1023.00 1023.12 1023.20 1023.05 1023.01 1023.17 1023.35 1023.42 1023.46 1023.55 1023.46 1023.45 1023.38 1023.33 1023.17 1023.24 1023.28 1023.26 1023.14 1022.85 1022.65 1022.55
1020.92 1021.20 1021.36 1021.52 1021.76 1022.07 1022.29 1022.54 1022.67 1022.76 1022.76 1022.97 1023.21 1023.28 1023.25 1023.25 1023.50 1023.48 1023.46 1023.54 1023.45 1023.54 1023.60 1023.61 1023.52 1023.67 1023.72 1023.81 1023.89 1024.00 1024.08 1024.08 1024.10 1023.92 1023.82 1023.54 1023.68 1023.83 1023.74 1023.74 1023.60 1023.43 1023.27
1021.01 1021.23 1021.46 1021.64 1021.89 1022.17 1022.53 1022.68 1022.73 1022.94 1023.09 1023.35 1023.40 1023.55 1023.52 1023.74 1023.85 1023.82 1023.77 1023.93 1023.97 1023.98 1023.99 1024.02 1023.97 1024.14 1024.23 1024.44 1024.48 1024.62 1024.66 1024.63 1024.61 1024.55 1024.34 1024.20 1024.14 1024.35 1024.32 1024.26 1024.22 1024.04 1023.92
1021.17 1021.40 1021.68 1021.86 1022.05 1022.33 1022.57 1022.81 1022.88 1023.19 1023.35 1023.53 1023.71 1023.85 1023.88 1024.07 1024.18 1024.19 1024.32 1024.29 1024.41 1024.34 1024.39 1024.35 1024.49 1024.66 1024.80 1024.88 1025.01 1025.15 1025.20 1025.07 1025.18 1025.09 1024.86 1024.80 1024.68 1024.74 1024.82 1024.72 1024.70 1024.67 1024.58
1021.24 1021.49 1021.79 1021.92 1022.11 1022.38 1022.61 1022.83 1023.03 1023.24 1023.48 1023.66 1023.77 1024.00 1024.07 1024.33 1024.49 1024.72 1024.70 1024.67 1024.80 1024.94 1024.84 1025.05 1025.08 1025.18 1025.46 1025.50 1025.71 1025.72 1025.80 1025.83 1025.72 1025.65 1025.41 1025.37 1025.21 1025.33 1025.21 1025.23 1025.22 1025.19 1025.10
1021.32 1021.57 1021.78 1021.96 1022.21 1022.46 1022.65 1022.93 1023.15 1023.35 1023.61 1023.84 1023.90 1024.27 1024.48 1024.72 1024.92 1025.07 1024.98 1025.11 1025.35 1025.30 1025.39 1025.61 1025.63 1025.86 1026.09 1026.22 1026.28 1026.41 1026.42 1026.49 1026.06 1026.14 1025.97 1025.83 1025.85 1025.70 1025.75 1025.71 1025.71 1025.64 1025.66
1021.23 1021.64 1021.87 1022.09 1022.26 1022.43 1022.73 1023.02 1023.21 1023.52 1023.75 1023.98 1024.23 1024.51 1024.88 1024.98 1024.98 1025.19 1025.34 1025.43 1025.73 1025.71 1025.94 1026.07 1026.19 1026.48 1026.59 1026.89 1026.95 1026.98 1026.97 1026.93 1026.72 1026.70 1026.55 1026.36 1026.35 1026.08 1026.09 1026.15 1026.21 1026.18 1026.15
1021.43 1021.61 1021.84 1022.06 1022.29 1022.54 1022.79 1023.06 1023.29 1023.61 1023.83 1024.08 1024.44 1024.73 1024.98 1025.02 1025.22 1025.52 1025.76 1025.86 1025.92 1026.11 1026.26 1026.40 1026.77 1026.87 1027.13 1027.31 1027.44 1027.53 1027.53 1027.46 1027.34 1027.35 1027.15 1027.09 1027.10 1026.79 1026.87 1026.83 1026.76 1026.77 1026.72
1021.64 1021.75 1021.92 1022.15 1022.32 1022.53 1022.82 1023.11 1023.36 1023.65 1023.98 1024.29 1024.57 1024.86 1025.06 1025.30 1025.67 1025.93 1026.00 1026.12 1026.28 1026.51 1026.80 1027.03 1027.09 1027.26 1027.55 1027.78 1027.95 1028.07 1028.13 1028.12 1028.08 1028.00 1027.83 1027.81 1027.62 1027.47 1027.49 1027.56 1027.56 1027.47 1027.39
1022.06 1022.00 1021.99 1022.24 1022.44 1022.60 1022.86 1023.17 1023.52 1023.76 1024.03 1024.37 1024.73 1025.03 1025.34 1025.61 1025.89 1026.10 1026.31 1026.47 1026.79 1027.14 1027.41 1027.60 1027.78 1028.00 1028.23 1028.44 1028.66 1028.78 1028.69 1028.86 1028.68 1028.62 1028.67 1028.48 1028.21 1028.17 1028.18 1028.16 1028.15 1028.05 1027.93
1022.14 1022.27 1022.16 1022.31 1022.43 1022.57 1022.77 1023.10 1023.25 1023.59 1023.92 1024.18 1024.60 1025.12 1025.43 1025.74 1026.03 1026.37 1026.76 1026.87 1027.28 1027.60 1027.88 1028.16 1028.49 1028.78 1028.90 1029.19 1029.42 1029.45 1029.61 1029.68 1029.60 1029.66 1029.53 1029.23 1029.00 1028.91 1028.92 1028.87 1028.73 1028.70 1028.57
1021.95 1022.32 1022.44 1022.47 1022.73 1022.59 1022.65 1022.85 1023.15 1023.43 1023.69 1023.98 1024.31 1024.78 1025.34 1025.74 1026.13 1026.51 1027.06 1027.29 1027.55 1027.97 1028.36 1028.70 1028.97 1029.25 1029.53 1029.73 1030.07 1030.27 1030.48 1030.51 1030.61 1030.64 1030.56 1030.04 1029.80 1029.57 1029.59 1029.57 1029.45 1029.54 1029.50
1021.89 1022.16 1022.41 1022.50 1022.70 1022.85 1022.89 1022.92 1022.91 1023.19 1023.44 1023.77 1024.22 1024.45 1025.06 1025.70 1026.12 1026.49 1026.99 1027.45 1027.77 1028.07 1028.54 1029.01 1029.41 1029.80 1030.05 1030.37 1030.62 1030.93 1031.21 1031.43 1031.53 1031.59 1031.55 1031.12 1030.82 1030.51 1030.40 1030.29 1030.10 1030.08 1030.25
1021.80 1022.03 1022.30 1022.45 1022.45 1022.85 1023.02 1023.01 1022.97 1022.86 1023.06 1023.45 1023.93 1024.24 1024.65 1025.23 1025.93 1026.47 1026.89 1027.40 1027.93 1028.19 1028.42 1029.15 1029.70 1030.14 1030.47 1030.82 1031.23 1031.51 1031.92 1032.27 1032.52 1032.66 1032.51 1032.29 1031.94 1031.61 1031.38 1031.17 1030.86 1030.88 1030.97
1021.56 1021.87 1022.13 1022.33 1022.47 1022.68 1022.78 1022.83 1022.83 1022.90 1023.00 1023.04 1023.51 1023.89 1024.29 1024.76 1025.48 1026.24 1026.92 1027.51 1027.93 1028.37 1028.49 1029.29 1029.87 1030.42 1030.93 1031.37 1031.80 1032.18 1032.49 1032.78 1033.13 1033.32 1033.45 1033.35 1033.02 1032.70 1032.45 1032.01 1031.82 1031.84 1031.98
1021.32 1021.67 1021.93 1022.13 1022.28 1022.49 1022.58 1022.58 1022.75 1022.83 1023.02 1023.05 1023.20 1023.64 1023.95 1024.51 1024.99 1025.77 1026.68 1027.54 1027.87 1028.41 1028.72 1029.47 1030.35 1030.89 1031.43 1031.96 1032.36 1032.79 1033.13 1033.35 1033.40 1033.73 1033.96 1034.05 1034.09 1033.75 1033.37 1033.18 1032.98 1032.92 1032.68
1021.10 1021.34 1021.57 1021.75 1021.90 1022.07 1022.24 1022.32 1022.49 1022.81 1022.99 1023.10 1023.28 1023.45 1023.82 1024.28 1024.84 1025.58 1026.23 1027.21 1027.83 1028.52 1028.80 1029.56 1030.57 1031.35 1032.09 1032.40 1032.97 1033.53 1033.75 1033.83 1033.96 1034.23 1034.30 1034.35 1034.63 1034.85 1034.52 1034.31 1034.02 1033.67 1033.47
1020.39 1020.84 1021.24 1021.39 1021.56 1021.80 1021.95 1022.29 1022.50 1022.82 1022.95 1023.15 1023.26 1023.49 1023.77 1024.19 1024.73 1025.41 1026.24 1027.08 1027.86 1028.38 1028.78 1029.53 1030.80 1031.32 1032.30 1033.06 1033.56 1034.13 1034.41 1034.52 1034.57 1034.60 1034.74 1035.10 1035.36 1035.46 1035.57 1035.36 1034.94 1034.64 1034.28
1019.77 1020.29 1020.78 1021.14 1021.31 1021.49 1021.89 1022.56 1022.78 1023.08 1023.23 1023.31 1023.39 1023.57 1023.81 1024.13 1024.65 1025.30 1026.23 1026.89 1027.91 1028.22 1028.95 1029.80 1030.57 1031.78 1032.14 1032.87 1033.76 1034.60 1035.19 1035.44 1035.38 1035.20 1035.36 1035.57 1035.83 1035.97 1035.92 1035.83 1035.69 1035.56 1035.28
1019.33 1019.81 1020.22 1020.72 1021.00 1021.37 1021.84 1022.42 1022.77 1023.04 1023.41 1023.63 1023.69 1023.71 1023.95 1024.10 1024.54 1025.15 1025.94 1026.81 1027.72 1027.71 1028.62 1029.60 1030.54 1031.43 1032.75 1033.05 1033.19 1035.09 1035.88 1036.04 1035.91 1035.86 1035.87 1035.94 1036.19 1036.31 1036.24 1036.07 1036.02 1036.44 1036.39
1018.21 1018.85 1019.43 1019.83 1020.38 1020.74 1021.07 1021.67 1022.17 1022.85 1023.42 1023.57 1023.97 1023.92 1024.24 1024.23 1024.50 1025.03 1025.95 1026.57 1027.45 1027.86 1028.72 1029.33 1029.88 1031.23 1032.27 1032.55 1032.69 1033.73 1035.26 1036.15 1036.21 1036.26 1036.17 1036.21 1036.40 1036.46 1036.38 1036.63 1036.91 1036.95 1036.78
1017.50 1017.84 1018.37 1018.93 1019.57 1020.23 1020.68 1021.33 1022.33 1023.10 1023.58 1023.93 1024.23 1024.29 1024.23 1024.41 1024.65 1025.05 1025.70 1026.36 1026.88 1027.15 1028.05 1028.70 1029.32 1029.81 1030.98 1032.36 1032.28 1032.08 1033.66 1034.04 1035.37 1036.25 1036.39 1036.48 1036.45 1036.49 1036.79 1037.03 1037.12 1037.10 1036.86
1016.00 1016.93 1017.64 1018.37 1018.95 1019.56 1020.15 1020.74 1021.32 1021.91 1022.48 1022.92 1023.58 1024.00 1024.38 1024.66 1024.82 1025.06 1025.71 1025.99 1026.38 1026.93 1027.72 1028.38 1029.06 1029.52 1030.01 1031.02 1032.10 1032.15 1032.05 1032.11 1033.52 1035.48 1036.27 1036.51 1036.57 1036.56 1036.76 1036.95 1037.06 1037.01 1036.85
1015.64 1016.14 1016.90 1017.69 1018.33 1018.89 1019.59 1020.07 1020.72 1021.53 1021.99 1022.66 1023.56 1024.23 1024.67 1025.07 1025.37 1025.37 1025.53 1025.97 1026.53 1027.03 1027.67 1028.28 1029.17 1029.45 1029.89 1030.45 1030.80 1031.62 1032.06 1032.32 1032.51 1033.15 1034.80 1035.83 1036.50 1036.64 1036.74 1036.74 1036.90 1036.91 1036.97
1014.96 1015.75 1016.37 1016.94 1017.47 1018.24 1018.89 1019.44 1019.94 1020.86 1021.80 1022.55 1023.41 1024.13 1024.70 1025.23 1025.70 1025.68 1025.70 1026.19 1026.58 1027.00 1027.55 1028.24 1028.94 1029.44 1029.73 1029.99 1030.55 1030.89 1031.18 1031.73 1032.26 1032.65 1033.96 1035.29 1035.70 1036.34 1036.60 1036.75 1036.80 1036.89 1037.00
Wind_Speed
6 9 10 10 11 11 13 15 15 13 16 16 16 16 16 17 17 17 16 15 16 17 18 18 16 20 21 22 22 21 20 20 19 18 21 22 22 22 23 23 20 20 24
10 9 11 11 12 12 12 14 15 13 15 16 16 16 16 17 16 16 16 16 16 16 17 17 17 20 21 20 20 20 19 19 19 19 18 19 21 21 22 21 20 21 23
10 8 10 11 12 13 13 13 14 14 16 15 16 16 16 17 16 16 16 15 16 16 16 17 19 19 20 20 20 20 20 20 19 19 17 13 17 21 22 22 22 22 22
10 8 9 10 12 12 12 13 15 14 15 15 16 16 17 16 15 16 16 16 16 16 17 16 19 19 20 19 20 20 20 20 19 16 13 14 15 21 22 22 23 23 22
9 8 9 11 13 12 12 13 15 15 15 16 16 16 16 16 15 16 16 17 16 17 17 18 18 19 18 19 19 20 20 19 17 13 14 13 13 19 22 22 22 23 21
10 9 10 11 12 12 11 12 14 15 14 16 16 15 16 15 16 15 16 17 17 17 18 17 18 19 19 20 20 20 20 19 15 12 13 14 16 21 23 23 23 22 21
10 9 9 10 12 13 12 13 12 14 14 15 16 15 15 15 15 16 17 17 17 18 18 18 19 20 21 21 21 20 19 18 13 13 12 14 15 22 22 22 23 23 24
12 9 9 9 10 11 12 12 12 13 14 14 15 15 14 15 16 16 17 18 17 18 18 19 20 21 22 21 21 21 20 17 13 13 14 13 19 23 23 23 22 22 23
7 9 8 9 9 9 9 10 11 12 12 14 13 13 11 12 13 14 14 17 18 18 19 20 20 21 21 21 21 20 19 18 14 11 13 11 20 21 23 23 24 25 25
5 6 7 7 7 8 7 7 8 10 11 11 12 11 11 11 12 12 12 16 18 18 19 19 20 21 21 21 20 19 18 18 14 12 11 10 19 22 22 22 22 23 24
4 5 5 7 6 8 8 8 8 9 11 11 10 10 9 7 10 11 12 16 18 18 18 18 20 21 21 20 20 18 16 9 12 10 7 19 23 24 24 25 24 24 24
7 6 6 6 6 5 4 6 9 8 6 7 9 9 6 6 7 10 10 17 17 17 19 19 19 18 14 9 8 14 9 13 11 11 9 20 23 24 25 24 26 25 25
7 5 6 6 2 4 3 3 3 3 5 5 11 10 6 5 6 6 5 5 7 11 7 10 10 8 12 9 9 10 11 11 9 9 14 21 24 25 25 25 25 25 26
7 8 6 5 4 2 2 2 4 5 5 5 7 12 8 5 5 6 4 5 5 6 9 8 7 10 13 13 13 13 13 10 8 8 14 21 24 25 24 24 24 25 25
7 6 7 4 5 3 3 2 2 5 6 7 7 9 8 7 7 6 6 7 5 6 9 9 9 9 11 12 11 12 13 13 13 8 8 21 23 24 24 24 25 25 25
6 7 6 5 4 4 4 5 4 4 2 5 6 8 11 8 8 7 7 6 6 5 8 8 7 8 8 9 12 13 13 12 12 11 8 12 24 24 24 24 25 25 25
6 6 8 7 6 5 6 6 4 3 3 3 4 7 10 8 10 10 8 5 6 6 10 10 9 9 9 8 13 12 11 12 12 12 10 9 11 23 24 24 24 24 24
6 9 7 6 7 7 6 5 4 3 4 4 3 5 8 9 11 9 9 8 7 6 8 9 8 9 8 9 10 9 9 10 12 12 11 9 9 8 16 23 23 23 24
11 9 9 9 9 8 7 4 5 4 3 3 4 4 6 9 10 9 8 8 7 7 8 9 8 9 9 10 10 9 8 8 9 9 13 12 12 10 8 17 22 23 23
10 9 7 8 9 8 6 4 3 3 2 2 3 4 7 7 10 10 8 8 8 8 8 8 12 8 10 10 11 10 8 7 7 8 10 9 10 11 10 11 9 12 21
9 10 11 11 9 8 5 5 4 3 2 2 2 5 6 8 10 10 8 9 8 9 11 12 12 15 9 11 10 9 8 7 8 7 7 8 9 9 10 10 8 7 7
14 13 13 13 12 11 7 4 3 3 2 2 2 3 3 6 9 9 9 9 8 9 12 14 14 9 6 6 5 5 5 3 5 5 5 6 8 7 10 11 10 9 7
14 17 15 15 14 12 9 7 5 5 3 3 3 3 3 5 6 9 9 9 10 10 11 14 13 10 9 4 6 3 5 4 5 2 4 4 6 6 7 7 8 8 8
18 13 14 14 15 12 12 10 10 6 6 3 4 3 4 4 6 9 9 9 11 8 12 12 10 7 7 7 3 1 2 5 5 5 2 2 4 5 6 4 5 7 8
12 14 13 14 14 12 13 12 10 7 3 5 6 8 5 3 2 6 8 9 9 7 9 11 10 8 5 6 4 4 2 3 3 4 5 4 2 3 3 4 4 4 6
9 12 14 16 15 14 15 14 15 12 9 9 8 7 5 4 2 3 7 7 7 8 10 8 6 8 6 5 4 4 4 3 3 3 4 3 3 4 3 3 3 3 4
Wind_Direction
193 185 185 159 142 130 123 119 108 107 101 98 90 85 85 87 83 81 80 77 79 75 71 74 75 83 82 76 74 71 69 67 63 58 59 61 59 54 50 46 43 50 49
156 169 164 151 141 136 131 117 117 107 100 95 91 90 88 84 80 82 82 81 80 82 80 81 80 80 82 79 75 71 65 63 61 58 59 64 60 60 57 50 47 50 48
149 156 147 135 132 132 129 125 117 112 104 99 98 94 86 84 84 81 80 79 83 84 86 83 84 83 82 78 73 70 69 65 60 55 53 61 64 60 59 56 55 51 51
146 145 141 133 133 129 133 133 123 116 111 107 98 93 88 86 84 84 81 80 81 85 84 86 85 84 80 77 75 73 71 68 63 59 61 62 65 61 60 58 56 54 52
145 146 148 140 137 138 135 134 123 119 116 110 106 100 96 92 87 84 85 83 83 86 87 85 86 83 79 76 75 74 72 67 60 59 64 63 65 63 61 61 58 55 53
151 151 151 146 141 142 137 135 131 125 119 115 109 103 96 92 86 85 83 81 82 86 85 86 86 82 77 76 75 71 65 59 56 55 60 59 63 64 62 60 59 58 55
156 155 156 150 145 148 144 142 137 132 126 122 115 112 105 101 99 95 90 90 88 87 87 85 83 80 77 75 74 71 67 59 60 55 58 68 67 66 63 62 60 58 56
160 162 161 155 152 147 149 149 144 141 134 129 123 118 114 108 99 96 94 91 91 88 86 85 84 81 78 76 75 71 64 58 59 56 50 59 60 62 66 63 62 61 61
164 164 168 164 157 145 146 147 147 144 140 134 132 127 118 104 96 94 91 91 90 91 89 88 88 86 83 79 77 72 63 56 62 56 59 57 53 56 57 53 53 54 54
140 152 164 166 162 155 155 149 150 148 148 143 136 131 125 113 100 91 86 89 88 87 90 92 92 91 87 82 79 72 62 58 60 59 61 66 68 69 66 62 57 54 52
139 154 155 166 171 165 168 166 158 154 152 145 138 137 130 126 112 99 90 93 93 91 89 90 90 90 87 81 75 67 66 58 57 56 54 60 64 63 61 59 56 56 56
173 168 158 160 180 180 161 169 168 169 165 158 155 156 147 131 122 108 97 95 91 93 93 90 87 84 82 81 72 64 65 63 57 52 46 57 59 61 61 60 59 56 56
173 164 177 159 163 181 167 172 167 171 170 171 164 158 150 132 134 125 116 102 109 98 97 93 89 83 87 86 78 74 71 66 61 53 37 59 63 62 60 58 61 59 55
175 175 175 164 160 194 159 207 199 189 181 167 176 162 150 145 144 131 123 114 108 112 107 98 94 95 90 86 84 81 75 75 72 62 45 51 60 61 61 59 59 59 56
190 182 186 175 165 185 214 211 232 215 189 179 174 169 159 152 147 134 135 125 122 125 119 111 105 102 94 90 84 82 79 77 73 66 56 52 59 59 59 59 59 58 55
192 193 183 193 192 187 212 218 215 230 200 163 168 174 165 159 147 142 141 134 127 132 123 113 111 106 97 93 88 86 87 82 78 74 71 55 59 56 56 58 57 54 52
200 187 192 193 190 200 207 213 192 208 190 179 147 157 158 157 152 147 137 137 134 123 116 108 100 100 97 93 94 88 87 84 83 77 72 70 60 58 60 59 58 57 54
185 191 185 191 192 194 193 201 179 177 180 181 150 153 154 149 150 146 142 136 141 128 121 114 115 105 97 98 96 88 88 86 84 83 77 73 72 67 60 62 60 56 55
196 187 193 191 189 184 175 170 174 160 161 161 148 145 151 146 151 141 140 134 140 131 123 123 116 119 116 106 100 91 83 84 83 83 79 80 77 74 72 65 58 55 52
194 189 187 187 184 170 148 141 145 117 124 130 145 141 142 141 140 140 134 141 153 136 122 122 121 119 121 119 106 88 78 78 84 87 90 86 82 78 74 69 65 52 51
193 187 186 183 183 165 160 171 167 161 152 123 131 130 146 143 140 142 141 139 161 145 142 136 129 131 122 133 112 93 77 75 79 81 87 93 88 81 78 67 59 52 45
193 193 189 188 181 183 175 160 143 143 134 114 135 104 167 138 142 137 151 149 164 133 140 148 148 143 137 185 133 121 156 141 78 71 86 92 98 94 78 70 70 62 55
195 193 193 188 181 183 167 127 98 93 103 119 175 154 148 155 141 149 154 158 154 150 157 162 163 161 156 189 215 146 153 161 147 142 78 104 109 98 97 90 78 68 61
209 193 188 183 180 180 164 165 168 182 167 164 163 150 134 142 151 154 157 155 153 157 163 170 166 163 149 157 136 118 45 134 160 157 185 134 113 119 127 121 96 71 56
194 187 184 179 179 174 177 181 177 185 155 138 138 144 130 114 157 161 151 148 152 158 162 165 169 165 161 150 151 159 116 68 74 142 156 162 183 155 148 136 114 84 61
173 178 179 180 184 172 179 183 184 177 152 146 151 156 153 146 150 152 134 152 153 153 160 164 162 162 158 144 157 146 151 160 162 135 118 141 161 163 173 161 153 117 64